STARLINK-32846, 62867

Orbit data source: Space-Track

STARLINK-32846, 62867 is a payload satellite owned by SpaceX/Seattle (US) in LEO that was launched on Sat, 01 Feb 2025 UTC via an FALCON 9 launch vehicle from the Air Force Western Test Range (AFWTR). Payload-class satellites include a variety of spacecraft equipped with specific instruments for various scientific and technological missions. These include communications satellites like Starlink; space stations such as the ISS; scientific satellites like the Hubble; Earth observation satellites from companies like Planet Labs, Umbra, and HawkEye 360; GPS; miniature CubeSats for education and research; and military/defense satellites.

Loading next visibility...
Identifier
62867, 2025-022P
Orbit
LEO
Last TLE update
4 hours ago
Origin
Manufacturer
SpaceX/Seattle
Mission
Operational Commercial Communications
Bus & Motor
STARLINK V2M, Unknown motor
Mass
730 kg wet, ~700 kg dry
Launch date (UTC)
2025-02-01 (5 months ago)
Launch vehicle
FALCON 9
Launch site
Air Force Western Test Range (AFWTR)
Object type
Payload
Rocket body
Debris
Shape & HBR
Box + 2 Pan, 29 m
Radar Cross Section
33.884 m², Large (>1 m²)

Expand to show TLE details & history

TLE from 4 hours ago
0 STARLINK-32846
1 62867U 25022P   25182.18351880 -.00329469  00000-0 -91238-2 0  9992
2 62867  53.1565 217.8056 0001384  33.1475 326.9615 15.37772872 24304
Epoch: 2025-07-01T04:24Z
TLE epoch observation values (Epoch: 2025-07-01T04:24:16.024Z)
Latitude
-0.00006°
Longitude
-127.74384°
Altitude
452.806 km
Speed
7.642 km/s
True Right ascension
14h 31m 13s
True Declination
0° 00' 00"
Sunlit
Object was in full shadow at epoch
Visualization orbit readout
Latitude
-32.80718°
Longitude
-157.33161°
Altitude
463.115 km
Speed
7.635 km/s
Apparent Right ascension
10h 43m 12s
Apparent Declination
-40° 02' 59"
Sunlit
Object is in daylight
Visualization observer readout
Local Sidereal Time
20:32:13
Azimuth
259.011° W
Elevation
-65.05°
Doppler factor
1
Orbital elements
Apogee altitude
453.9 km
Perigee altitude
452.009 km
Semi-major axis
6,831.091 km
Eccentricity
0.00014
Inclination
53.1565°
RAAN
217.8056°
Arg. of periapsis
33.1475°
True anomaly
Unknown
Mean anomaly
326.9615°
Eccentric anomaly
Unknown
Mean motion
3.84422 °/min
Orbital period
93.65 mins
BSTAR
-0.0091238
Loading maneuver chart data...
Loading SW <> Apogee altitude chart data...
Loading historical data...
Loading historical data...
Loading historical data...
Loading historical data...
Loading historical data...
Loading historical data...
Loading historical data...

STARLINK-32846 Visibility forecast

Observer location: undefined°, undefined°

Span
Click to sort rows by Start time (UTC) header in descending order
Start Az.
Max El. time (UTC)
Max El. Az.
Max El.
End time (UTC)
End Az.
4 mins2025-07-01 11:07:01.267Z341.811° N2025-07-01 11:09:01.267Z31.051° NE24.413°2025-07-01 11:11:01.267Z78.328° E
4 mins2025-07-01 12:45:01.267Z275.934° WNW2025-07-01 12:46:01.267Z245.968° WSW31.029°2025-07-01 12:49:01.267Z161.685° S
5 mins2025-07-02 05:35:01.267Z259.649° W2025-07-02 05:37:01.267Z318.307° NNW35.277°2025-07-02 05:40:01.267Z36.813° NE
|